Weather History for Columbia, MO

Change the Weather History Date:

Friday, November 29, 2013

  Actual Average Record
Temperature  
Mean Temperature 35 °F 38 °F  
Max Temperature 48 °F 47 °F 76 °F (1933)
Min Temperature 22 °F 29 °F 0 °F (1929)
Degree Days  
Heating Degree Days 30 27  
Month to date heating degree days 663 592  
Since 1 July heating degree days 987 957  
Cooling Degree Days 0 0  
Month to date cooling degree days 0 0  
Year to date cooling degree days 1322 1247  
Moisture  
Dew Point 22 °F    
Average Humidity 57    
Maximum Humidity 74    
Minimum Humidity 39    
Precipitation  
Precipitation 0.00 in 0.10 in 1.60 in (1975)
Month to date precipitation 1.47 3.14  
Year to date precipitation 39.81 40.07  
Snow  
Snow 0.00 in 0.00 in 5.70 in (1974)
Month to date snowfall 0.0 0.8  
Since 1 July snowfall 0.0 0.8  
Since 1 September snowfall 0.0 0.8  
Snow Depth 0.00 in    
Sea Level Pressure  
Sea Level Pressure 30.46 in    
Wind  
Wind Speed 8 mph (ESE)    
Max Wind Speed 13 mph    
Max Gust Speed 17 mph    
Visibility 10 miles    
Events      
T = Trace of Precipitation, MM = Missing Value Source: NWS Daily Summary

Daily Weather History Graph

Daily Weather History Graph

Search for Another Location

Airport:

Trip Planner

Search our weather history database for the weather conditions in past years. The results will help you decide how hot, cold, wet, or windy it might be!

Date:

Astronomy

Nov. 29, 2013 Rise Set
Actual Time 7:06 AM CST 4:47 PM CST
Civil Twilight 6:37 AM CST 5:17 PM CST
Nautical Twilight 6:04 AM CST 5:50 PM CST
Astronomical Twilight 5:32 AM CST 6:22 PM CST
Moon 3:14 AM CST (11/29) 2:31 PM CST (11/29)
Length of Visible Light 10h 39m
Length of Day
9h 41m
Waning Crescent, 14% of the Moon is Illuminated
Nov 29
Waning Crescent
Dec 2
New
Dec 9
First Quarter
Dec 17
Full
Dec 25
Last Quarter

Hourly Weather History & Observations

Time (CST) Temp. Windchill Dew Point Humidity Pressure Visibility Wind Dir Wind Speed Gust Speed Precip Events Conditions
12:54 AM 25.0 °F 17.1 °F 17.1 °F 72% 30.51 in 10.0 mi ENE 6.9 mph - N/A   Clear
1:54 AM 24.1 °F 17.0 °F 17.1 °F 75% 30.53 in 10.0 mi East 5.8 mph - N/A   Clear
2:54 AM 24.1 °F 15.2 °F 17.1 °F 75% 30.53 in 10.0 mi East 8.1 mph - N/A   Clear
3:54 AM 23.0 °F 14.7 °F 16.0 °F 74% 30.53 in 10.0 mi East 6.9 mph - N/A   Clear
4:54 AM 23.0 °F 14.7 °F 16.0 °F 74% 30.55 in 10.0 mi East 6.9 mph - N/A   Clear
5:54 AM 23.0 °F 15.8 °F 16.0 °F 74% 30.56 in 10.0 mi East 5.8 mph - N/A   Clear
6:54 AM 23.0 °F 14.7 °F 16.0 °F 74% 30.57 in 10.0 mi East 6.9 mph - N/A   Clear
7:54 AM 25.0 °F 16.3 °F 18.0 °F 75% 30.56 in 10.0 mi East 8.1 mph - N/A   Clear
8:54 AM 28.9 °F 19.8 °F 19.9 °F 69% 30.57 in 10.0 mi SE 10.4 mph - N/A   Clear
9:54 AM 34.0 °F 26.6 °F 21.0 °F 59% 30.57 in 10.0 mi ESE 9.2 mph - N/A   Clear
10:54 AM 39.0 °F 34.0 °F 21.9 °F 50% 30.55 in 10.0 mi SE 6.9 mph - N/A   Clear
11:54 AM 43.0 °F 38.8 °F 23.0 °F 45% 30.51 in 10.0 mi ESE 6.9 mph - N/A   Clear
12:54 PM 45.0 °F 41.2 °F 24.1 °F 44% 30.48 in 10.0 mi Variable 6.9 mph - N/A   Clear
1:54 PM 48.0 °F - 25.0 °F 41% 30.45 in 10.0 mi South 8.1 mph - N/A   Clear
2:54 PM 48.0 °F - 25.0 °F 41% 30.42 in 10.0 mi SSE 10.4 mph - N/A   Clear
3:54 PM 46.9 °F - 26.1 °F 44% 30.41 in 10.0 mi SE 8.1 mph - N/A   Clear
4:54 PM 43.0 °F 38.2 °F 25.0 °F 49% 30.38 in 10.0 mi ESE 8.1 mph - N/A   Clear
5:54 PM 41.0 °F 35.8 °F 25.0 °F 53% 30.38 in 10.0 mi ESE 8.1 mph - N/A   Clear
6:54 PM 39.9 °F 33.9 °F 25.0 °F 55% 30.37 in 10.0 mi ESE 9.2 mph - N/A   Clear
7:54 PM 39.0 °F 31.8 °F 25.0 °F 57% 30.36 in 10.0 mi ESE 11.5 mph - N/A   Clear
8:54 PM 37.0 °F 31.0 °F 25.0 °F 62% 30.35 in 10.0 mi SE 8.1 mph - N/A   Clear
9:54 PM 36.0 °F 29.6 °F 25.0 °F 64% 30.36 in 10.0 mi SE 8.1 mph - N/A   Clear
10:54 PM 36.0 °F 28.5 °F 26.1 °F 67% 30.34 in 10.0 mi SE 10.4 mph - N/A   Clear
11:54 PM 34.0 °F 25.5 °F 26.1 °F 73% 30.34 in 10.0 mi SSE 11.5 mph - N/A   Clear